DAL1196 KATL-KDAY

Flight info

Callsign DAL1196
Flight time 1h 11m
Altitude 31000
Route PADGT2 RAFTN LODLL HICKS FIITZ
Aircraft A319/M-SDE3FGHIRWY/LB1

Departure

Time 2026-05-05 19:52
Airport Hartsfield Jackson Atlanta International Airport (KATL)

Arrival

Time 2026-05-05 21:03
Airport James M. Cox Dayton International Airport (KDAY)
Time Latitude Longitude Altitude Speed Heading
2026-05-05 19:25 33.63790 -84.44202 1036 ft 0 kts 271°
2026-05-05 19:37 33.63790 -84.44191 1035 ft 2 kts 271°
2026-05-05 19:37 33.63790 -84.44172 1035 ft 2 kts 271°
2026-05-05 19:38 33.63790 -84.44152 1035 ft 2 kts 271°
2026-05-05 19:38 33.63789 -84.44133 1035 ft 2 kts 281°
2026-05-05 19:38 33.63783 -84.44116 1035 ft 2 kts 312°
2026-05-05 19:38 33.63779 -84.44111 1036 ft 0 kts 312°
2026-05-05 19:41 33.63792 -84.44117 1036 ft 4 kts 344°
2026-05-05 19:42 33.63832 -84.44120 1036 ft 8 kts 357°
2026-05-05 19:42 33.63898 -84.44118 1035 ft 11 kts
2026-05-05 19:42 33.63983 -84.44118 1035 ft 13 kts
2026-05-05 19:42 33.64071 -84.44117 1035 ft 13 kts
2026-05-05 19:43 33.64160 -84.44118 1035 ft 13 kts 360°
2026-05-05 19:43 33.64250 -84.44118 1035 ft 13 kts 360°
2026-05-05 19:43 33.64341 -84.44118 1035 ft 13 kts
2026-05-05 19:43 33.64416 -84.44077 1035 ft 13 kts 64°
2026-05-05 19:44 33.64429 -84.43972 1035 ft 13 kts 82°
2026-05-05 19:44 33.64442 -84.43863 1035 ft 13 kts 81°
2026-05-05 19:44 33.64456 -84.43749 1035 ft 14 kts 84°
2026-05-05 19:44 33.64459 -84.43632 1036 ft 14 kts 90°
2026-05-05 19:45 33.64459 -84.43511 1036 ft 15 kts 90°
2026-05-05 19:45 33.64460 -84.43384 1036 ft 15 kts 89°
2026-05-05 19:45 33.64460 -84.43254 1036 ft 16 kts 90°
2026-05-05 19:45 33.64460 -84.43120 1036 ft 16 kts 90°
2026-05-05 19:46 33.64460 -84.42982 1036 ft 17 kts 90°
2026-05-05 19:46 33.64460 -84.42839 1035 ft 17 kts 90°
2026-05-05 19:46 33.64468 -84.42693 1035 ft 18 kts 87°
2026-05-05 19:46 33.64469 -84.42543 1035 ft 18 kts 90°
2026-05-05 19:47 33.64469 -84.42389 1035 ft 19 kts 90°
2026-05-05 19:47 33.64483 -84.42236 1035 ft 19 kts 62°
2026-05-05 19:47 33.64543 -84.42097 1035 ft 19 kts 81°
2026-05-05 19:47 33.64543 -84.41940 1035 ft 19 kts 90°
2026-05-05 19:48 33.64543 -84.41782 1036 ft 19 kts 90°
2026-05-05 19:48 33.64543 -84.41624 1036 ft 19 kts 90°
2026-05-05 19:48 33.64543 -84.41467 1036 ft 19 kts 90°
2026-05-05 19:48 33.64543 -84.41305 1036 ft 20 kts 90°
2026-05-05 19:49 33.64542 -84.41141 1036 ft 20 kts 90°
2026-05-05 19:49 33.64541 -84.41028 1036 ft 20 kts 89°
2026-05-05 19:49 33.64545 -84.40854 1035 ft 13 kts 84°
2026-05-05 19:49 33.64557 -84.40742 1035 ft 14 kts 82°
2026-05-05 19:50 33.64567 -84.40638 1035 ft 4 kts 84°
2026-05-05 19:50 33.64573 -84.40598 1034 ft 5 kts 74°
2026-05-05 19:50 33.64605 -84.40573 1034 ft 7 kts 10°
2026-05-05 19:50 33.64661 -84.40576 1033 ft 9 kts 345°
2026-05-05 19:51 33.64680 -84.40646 1033 ft 13 kts 271°
2026-05-05 19:51 33.64678 -84.41021 1036 ft 81 kts 270°
2026-05-05 19:51 33.64679 -84.41960 1036 ft 142 kts 270°
2026-05-05 19:51 33.64677 -84.43330 1157 ft 177 kts 266°
2026-05-05 19:52 33.64679 -84.44830 1736 ft 183 kts 265°
2026-05-05 19:52 33.64846 -84.46352 2509 ft 188 kts 285°
2026-05-05 19:52 33.65380 -84.47818 3130 ft 200 kts 290°
2026-05-05 19:52 33.65983 -84.49426 3501 ft 224 kts 290°
2026-05-05 19:53 33.66655 -84.51217 3905 ft 247 kts 291°
2026-05-05 19:53 33.67398 -84.53187 4427 ft 270 kts 291°
2026-05-05 19:53 33.68275 -84.55222 5297 ft 279 kts 302°
2026-05-05 19:53 33.69631 -84.56874 6262 ft 287 kts 321°
2026-05-05 19:54 33.71445 -84.57928 7194 ft 295 kts 342°
2026-05-05 19:54 33.73497 -84.58190 8151 ft 300 kts 358°
2026-05-05 19:54 33.75584 -84.58156 9146 ft 300 kts 357°
2026-05-05 19:54 33.77666 -84.58119 10127 ft 299 kts 356°
2026-05-05 19:55 33.79753 -84.58087 10999 ft 301 kts 356°
2026-05-05 19:55 33.81859 -84.57798 11758 ft 312 kts
2026-05-05 19:55 33.84039 -84.57058 12053 ft 337 kts 12°
2026-05-05 19:55 33.86355 -84.56216 12352 ft 357 kts 13°
2026-05-05 19:56 33.88753 -84.55322 12992 ft 364 kts 13°
2026-05-05 19:56 33.91187 -84.54407 13722 ft 369 kts 13°
2026-05-05 19:56 33.93648 -84.53482 14403 ft 372 kts 13°
2026-05-05 19:56 33.96126 -84.52555 15099 ft 374 kts 12°
2026-05-05 19:57 33.98616 -84.51627 15817 ft 376 kts 12°
2026-05-05 19:57 34.00274 -84.51011 16305 ft 377 kts 12°
2026-05-05 19:57 34.03636 -84.49770 17260 ft 379 kts 12°
2026-05-05 19:57 34.06162 -84.48842 17971 ft 381 kts 11°
2026-05-05 19:58 34.08702 -84.47910 18626 ft 383 kts 11°
2026-05-05 19:58 34.11257 -84.46969 19216 ft 385 kts 11°
2026-05-05 19:58 34.13835 -84.46018 19763 ft 389 kts 11°
2026-05-05 19:58 34.16436 -84.45056 20320 ft 393 kts 11°
2026-05-05 19:59 34.19061 -84.44081 20872 ft 396 kts 11°
2026-05-05 19:59 34.21707 -84.43097 21422 ft 400 kts 11°
2026-05-05 19:59 34.24379 -84.42101 21970 ft 403 kts 10°
2026-05-05 19:59 34.27037 -84.41111 22488 ft 407 kts 10°
2026-05-05 20:00 34.29782 -84.40325 22985 ft 403 kts
2026-05-05 20:00 34.32561 -84.40122 23494 ft 399 kts 353°
2026-05-05 20:00 34.35345 -84.40147 23958 ft 402 kts 353°
2026-05-05 20:00 34.38146 -84.40171 24386 ft 404 kts 353°
2026-05-05 20:01 34.40962 -84.40193 24812 ft 406 kts 353°
2026-05-05 20:01 34.43791 -84.40210 25245 ft 407 kts 353°
2026-05-05 20:01 34.46630 -84.40225 25624 ft 409 kts 353°
2026-05-05 20:01 34.49478 -84.40235 26042 ft 410 kts 353°
2026-05-05 20:02 34.52339 -84.40244 26454 ft 412 kts 353°
2026-05-05 20:02 34.55209 -84.40257 26870 ft 413 kts 353°
2026-05-05 20:02 34.58086 -84.40270 27293 ft 414 kts 353°
2026-05-05 20:02 34.60976 -84.40283 27729 ft 416 kts 353°
2026-05-05 20:03 34.63886 -84.40299 28033 ft 421 kts 353°
2026-05-05 20:03 34.66826 -84.40316 28372 ft 424 kts 353°
2026-05-05 20:03 34.69781 -84.40332 28733 ft 426 kts 353°
2026-05-05 20:03 34.72754 -84.40346 29093 ft 428 kts 353°
2026-05-05 20:04 34.75742 -84.40361 29474 ft 430 kts 353°
2026-05-05 20:04 34.78741 -84.40375 29828 ft 432 kts 353°
2026-05-05 20:04 34.81753 -84.40388 30146 ft 434 kts 353°
2026-05-05 20:04 34.84780 -84.40400 30453 ft 435 kts 353°
2026-05-05 20:05 34.87812 -84.40414 30779 ft 437 kts 353°
2026-05-05 20:05 34.90858 -84.40428 30956 ft 438 kts 353°
2026-05-05 20:05 34.93877 -84.40439 30999 ft 429 kts 353°
2026-05-05 20:06 34.98784 -84.40456 31001 ft 421 kts 353°
2026-05-05 20:06 35.04633 -84.40485 30996 ft 420 kts 353°
2026-05-05 20:07 35.11422 -84.40479 30997 ft 420 kts 353°
2026-05-05 20:07 35.16311 -84.40440 30994 ft 418 kts 353°
2026-05-05 20:08 35.22126 -84.40383 30992 ft 418 kts 352°
2026-05-05 20:08 35.27934 -84.40345 30991 ft 417 kts 352°
2026-05-05 20:09 35.33698 -84.40316 30987 ft 417 kts 352°
2026-05-05 20:09 35.39505 -84.40281 31021 ft 418 kts 352°
2026-05-05 20:10 35.45318 -84.40238 30995 ft 417 kts 352°
2026-05-05 20:10 35.51122 -84.40196 30990 ft 417 kts 352°
2026-05-05 20:11 35.56919 -84.40164 30984 ft 416 kts 352°
2026-05-05 20:11 35.62717 -84.40133 30996 ft 417 kts 352°
2026-05-05 20:12 35.68515 -84.40095 30989 ft 417 kts 352°
2026-05-05 20:12 35.74312 -84.40063 30980 ft 416 kts 352°
2026-05-05 20:13 35.80064 -84.40023 30973 ft 416 kts 352°
2026-05-05 20:13 35.85858 -84.39977 30973 ft 416 kts 352°
2026-05-05 20:14 35.91645 -84.39937 30968 ft 416 kts 352°
2026-05-05 20:14 35.97436 -84.39902 30967 ft 416 kts 352°
2026-05-05 20:15 36.03228 -84.39877 30975 ft 417 kts 351°
2026-05-05 20:15 36.09016 -84.39839 30972 ft 416 kts 352°
2026-05-05 20:16 36.14806 -84.39797 31000 ft 416 kts 351°
2026-05-05 20:16 36.20597 -84.39757 30984 ft 416 kts 352°
2026-05-05 20:17 36.26381 -84.39715 30981 ft 415 kts 351°
2026-05-05 20:17 36.32151 -84.39679 30970 ft 414 kts 352°
2026-05-05 20:18 36.37916 -84.39641 30991 ft 414 kts 351°
2026-05-05 20:18 36.43680 -84.39608 30983 ft 414 kts 351°
2026-05-05 20:19 36.49440 -84.39567 30967 ft 414 kts 352°
2026-05-05 20:19 36.55202 -84.39526 30961 ft 414 kts 351°
2026-05-05 20:20 36.60960 -84.39491 30951 ft 414 kts 351°
2026-05-05 20:20 36.66719 -84.39455 30959 ft 414 kts 351°
2026-05-05 20:21 36.72475 -84.39417 30939 ft 413 kts 351°
2026-05-05 20:21 36.78229 -84.39378 30933 ft 414 kts 351°
2026-05-05 20:22 36.83990 -84.39339 30926 ft 414 kts 351°
2026-05-05 20:22 36.89750 -84.39301 30940 ft 414 kts 351°
2026-05-05 20:23 36.95509 -84.39270 30926 ft 414 kts 351°
2026-05-05 20:23 37.01229 -84.39228 30916 ft 414 kts 351°
2026-05-05 20:24 37.06984 -84.39184 30912 ft 414 kts 351°
2026-05-05 20:24 37.12740 -84.39143 30935 ft 413 kts 351°
2026-05-05 20:25 37.18489 -84.39106 30931 ft 413 kts 351°
2026-05-05 20:25 37.24232 -84.39070 30924 ft 412 kts 351°
2026-05-05 20:26 37.29972 -84.39033 30916 ft 412 kts 351°
2026-05-05 20:26 37.35707 -84.38995 30936 ft 412 kts 351°
2026-05-05 20:27 37.41450 -84.38952 30909 ft 413 kts 351°
2026-05-05 20:27 37.47196 -84.38914 30905 ft 413 kts 351°
2026-05-05 20:28 37.52950 -84.38880 30898 ft 414 kts 351°
2026-05-05 20:28 37.58708 -84.38845 30918 ft 414 kts 351°
2026-05-05 20:29 37.64469 -84.38811 30907 ft 414 kts 351°
2026-05-05 20:29 37.70195 -84.38772 30896 ft 414 kts 351°
2026-05-05 20:30 37.75960 -84.38731 30893 ft 414 kts 351°
2026-05-05 20:30 37.81725 -84.38692 30886 ft 414 kts 351°
2026-05-05 20:31 37.87492 -84.38650 30913 ft 414 kts 350°
2026-05-05 20:31 37.93245 -84.38606 30905 ft 413 kts 350°
2026-05-05 20:32 37.98989 -84.38570 30905 ft 413 kts 350°
2026-05-05 20:32 38.04730 -84.38530 30900 ft 412 kts 350°
2026-05-05 20:33 38.10467 -84.38488 30910 ft 412 kts 350°
2026-05-05 20:33 38.16203 -84.38449 30898 ft 412 kts 350°
2026-05-05 20:34 38.21933 -84.38418 30893 ft 412 kts 350°
2026-05-05 20:34 38.27675 -84.38377 30617 ft 413 kts 350°
2026-05-05 20:34 38.30552 -84.38353 30376 ft 414 kts 350°
2026-05-05 20:35 38.33437 -84.38330 30136 ft 415 kts 350°
2026-05-05 20:35 38.36332 -84.38310 29888 ft 416 kts 350°
2026-05-05 20:35 38.39234 -84.38292 29609 ft 418 kts 350°
2026-05-05 20:35 38.42146 -84.38276 29333 ft 419 kts 351°
2026-05-05 20:36 38.45066 -84.38258 29060 ft 420 kts 351°
2026-05-05 20:36 38.47986 -84.38238 28790 ft 419 kts 351°
2026-05-05 20:36 38.50901 -84.38215 28522 ft 419 kts 351°
2026-05-05 20:36 38.53811 -84.38193 28283 ft 418 kts 351°
2026-05-05 20:37 38.56715 -84.38171 28019 ft 417 kts 351°
2026-05-05 20:37 38.59614 -84.38151 27758 ft 416 kts 351°
2026-05-05 20:37 38.62460 -84.38128 27502 ft 415 kts 351°
2026-05-05 20:37 38.65346 -84.38104 27246 ft 414 kts 351°
2026-05-05 20:38 38.68225 -84.38082 26992 ft 412 kts 351°
2026-05-05 20:38 38.71074 -84.38060 26484 ft 407 kts 351°
2026-05-05 20:38 38.73888 -84.38037 25916 ft 403 kts 351°
2026-05-05 20:38 38.76678 -84.38016 25384 ft 400 kts 352°
2026-05-05 20:39 38.79448 -84.38086 24826 ft 393 kts 346°
2026-05-05 20:39 38.82105 -84.38669 24309 ft 383 kts 337°
2026-05-05 20:39 38.84605 -84.39717 23802 ft 377 kts 333°
2026-05-05 20:39 38.87083 -84.40825 23298 ft 376 kts 333°
2026-05-05 20:40 38.89547 -84.41918 22786 ft 373 kts 334°
2026-05-05 20:40 38.91993 -84.42995 22335 ft 369 kts 334°
2026-05-05 20:40 38.94413 -84.44057 21910 ft 366 kts 334°
2026-05-05 20:40 38.96809 -84.45111 21480 ft 362 kts 334°
2026-05-05 20:41 38.99175 -84.46159 21079 ft 358 kts 333°
2026-05-05 20:41 39.01517 -84.47198 20640 ft 355 kts 333°
2026-05-05 20:41 39.03841 -84.48233 20209 ft 352 kts 333°
2026-05-05 20:41 39.06151 -84.49258 19785 ft 350 kts 333°
2026-05-05 20:42 39.08450 -84.50279 19348 ft 349 kts 334°
2026-05-05 20:42 39.10738 -84.51297 18917 ft 347 kts 334°
2026-05-05 20:42 39.13014 -84.52313 18476 ft 346 kts 334°
2026-05-05 20:42 39.15285 -84.53327 18002 ft 345 kts 334°
2026-05-05 20:43 39.17642 -84.54038 17532 ft 353 kts 346°
2026-05-05 20:43 39.20121 -84.54073 17049 ft 361 kts 360°
2026-05-05 20:43 39.22599 -84.53371 16571 ft 370 kts 14°
2026-05-05 20:43 39.24911 -84.51952 16065 ft 378 kts 27°
2026-05-05 20:44 39.27147 -84.50160 15565 ft 379 kts 28°
2026-05-05 20:44 39.29391 -84.48367 15058 ft 380 kts 28°
2026-05-05 20:44 39.31651 -84.46575 14551 ft 382 kts 28°
2026-05-05 20:44 39.33921 -84.44785 14033 ft 383 kts 28°
2026-05-05 20:45 39.38477 -84.41174 12931 ft 384 kts 29°
2026-05-05 20:45 39.40751 -84.39368 12394 ft 383 kts 29°
2026-05-05 20:45 39.43021 -84.37563 11860 ft 382 kts 29°
2026-05-05 20:46 39.45265 -84.35770 11555 ft 374 kts 29°
2026-05-05 20:46 39.47435 -84.34027 11431 ft 360 kts 29°
2026-05-05 20:46 39.49529 -84.32348 11306 ft 349 kts 29°
2026-05-05 20:46 39.51564 -84.30723 11182 ft 338 kts 29°
2026-05-05 20:47 39.53626 -84.29270 11050 ft 345 kts 16°
2026-05-05 20:47 39.55969 -84.28732 10832 ft 338 kts 356°
2026-05-05 20:47 39.58274 -84.28720 10700 ft 325 kts 354°
2026-05-05 20:47 39.60495 -84.28742 10579 ft 314 kts 353°
2026-05-05 20:48 39.62654 -84.28759 10358 ft 308 kts 353°
2026-05-05 20:48 39.64788 -84.28778 10048 ft 306 kts 353°
2026-05-05 20:48 39.66911 -84.28799 9734 ft 304 kts 353°
2026-05-05 20:48 39.69019 -84.28813 9380 ft 302 kts 354°
2026-05-05 20:49 39.71089 -84.28833 9009 ft 300 kts 354°
2026-05-05 20:49 39.73194 -84.28854 8663 ft 297 kts 353°
2026-05-05 20:49 39.75228 -84.28868 8299 ft 296 kts 354°
2026-05-05 20:49 39.77282 -84.28887 7922 ft 294 kts 354°
2026-05-05 20:50 39.79328 -84.28906 7511 ft 293 kts 353°
2026-05-05 20:50 39.80703 -84.28916 7268 ft 293 kts 354°
2026-05-05 20:50 39.83378 -84.28947 6995 ft 283 kts 353°
2026-05-05 20:50 39.85286 -84.28946 6997 ft 266 kts 353°
2026-05-05 20:51 39.87104 -84.28927 7001 ft 260 kts 354°
2026-05-05 20:51 39.88914 -84.28918 7002 ft 260 kts 353°
2026-05-05 20:51 39.90724 -84.28906 7011 ft 260 kts 353°
2026-05-05 20:51 39.92533 -84.28884 7009 ft 260 kts 353°
2026-05-05 20:52 39.94343 -84.28858 7005 ft 261 kts 354°
2026-05-05 20:52 39.96150 -84.28836 6787 ft 259 kts 353°
2026-05-05 20:52 39.97952 -84.28803 6462 ft 259 kts 353°
2026-05-05 20:52 39.99757 -84.28581 6118 ft 266 kts 14°
2026-05-05 20:53 40.01339 -84.27353 5794 ft 268 kts 45°
2026-05-05 20:53 40.02560 -84.25530 5454 ft 267 kts 53°
2026-05-05 20:53 40.03709 -84.23645 5172 ft 263 kts 53°
2026-05-05 20:53 40.04828 -84.21774 5008 ft 261 kts 54°
2026-05-05 20:54 40.05953 -84.19918 5000 ft 260 kts 53°
2026-05-05 20:54 40.07073 -84.18076 5003 ft 258 kts 53°
2026-05-05 20:54 40.08179 -84.16222 4998 ft 259 kts 54°
2026-05-05 20:54 40.09289 -84.14373 4774 ft 258 kts 53°
2026-05-05 20:55 40.10400 -84.12535 4389 ft 259 kts 53°
2026-05-05 20:55 40.11517 -84.10698 4111 ft 256 kts 52°
2026-05-05 20:55 40.12514 -84.08811 3988 ft 250 kts 71°
2026-05-05 20:55 40.12774 -84.06646 3997 ft 238 kts 104°
2026-05-05 20:56 40.12157 -84.04733 4001 ft 225 kts 135°
2026-05-05 20:56 40.11118 -84.03267 4002 ft 222 kts 142°
2026-05-05 20:56 40.10014 -84.01857 4001 ft 221 kts 143°
2026-05-05 20:56 40.08901 -84.00487 3993 ft 217 kts 149°
2026-05-05 20:57 40.07569 -83.99819 3999 ft 201 kts 185°
2026-05-05 20:57 40.06225 -84.00154 4002 ft 196 kts 201°
2026-05-05 20:57 40.04935 -84.00744 4003 ft 195 kts 202°
2026-05-05 20:57 40.03672 -84.01361 4003 ft 193 kts 204°
2026-05-05 20:58 40.02412 -84.01963 4003 ft 194 kts 204°
2026-05-05 20:58 40.01219 -84.02772 4002 ft 195 kts 221°
2026-05-05 20:58 40.00360 -84.04142 4007 ft 196 kts 233°
2026-05-05 20:58 39.99850 -84.05112 3928 ft 195 kts 234°
2026-05-05 20:59 39.99092 -84.06551 3721 ft 190 kts 233°
2026-05-05 20:59 39.98354 -84.07947 3494 ft 185 kts 234°
2026-05-05 20:59 39.97633 -84.09308 3253 ft 178 kts 233°
2026-05-05 20:59 39.96944 -84.10610 3042 ft 170 kts 233°
2026-05-05 21:00 39.96292 -84.11840 2809 ft 161 kts 235°
2026-05-05 21:00 39.95664 -84.13022 2592 ft 155 kts 234°
2026-05-05 21:00 39.95094 -84.14096 2402 ft 136 kts 234°
2026-05-05 21:00 39.94570 -84.15084 2228 ft 130 kts 234°
2026-05-05 21:01 39.94063 -84.16038 2043 ft 128 kts 234°
2026-05-05 21:01 39.93558 -84.16990 1864 ft 127 kts 235°
2026-05-05 21:01 39.93061 -84.17925 1706 ft 125 kts 235°
2026-05-05 21:01 39.92567 -84.18853 1518 ft 128 kts 232°
2026-05-05 21:02 39.92058 -84.19812 1349 ft 126 kts 234°
2026-05-05 21:02 39.91570 -84.20735 1181 ft 125 kts 235°
2026-05-05 21:02 39.91083 -84.21654 1010 ft 121 kts 234°
2026-05-05 21:02 39.90679 -84.22411 1008 ft 78 kts 235°
2026-05-05 21:03 39.90459 -84.22823 1006 ft 42 kts 235°
2026-05-05 21:03 39.90309 -84.23107 1005 ft 29 kts 235°
2026-05-05 21:03 39.90225 -84.23265 1006 ft 13 kts 236°
2026-05-05 21:03 39.90158 -84.23302 1006 ft 12 kts 147°
2026-05-05 21:04 39.90108 -84.23220 1006 ft 12 kts 92°
2026-05-05 21:04 39.90146 -84.23129 1006 ft 11 kts 55°
2026-05-05 21:04 39.90188 -84.23048 1006 ft 10 kts 56°
2026-05-05 21:04 39.90229 -84.22969 1005 ft 12 kts 56°
2026-05-05 21:05 39.90279 -84.22875 1005 ft 14 kts 54°
2026-05-05 21:05 39.90338 -84.22767 1006 ft 15 kts 55°
2026-05-05 21:05 39.90402 -84.22646 1006 ft 17 kts 56°
2026-05-05 21:05 39.90471 -84.22512 1006 ft 18 kts 56°
2026-05-05 21:06 39.90546 -84.22379 1006 ft 16 kts 55°
2026-05-05 21:06 39.90541 -84.22291 1005 ft 10 kts 145°
2026-05-05 21:06 39.90488 -84.22245 1005 ft 9 kts 146°
2026-05-05 21:06 39.90437 -84.22199 1005 ft 9 kts 146°
2026-05-05 21:07 39.90381 -84.22150 1005 ft 11 kts 146°
2026-05-05 21:07 39.90310 -84.22087 1005 ft 14 kts 145°
2026-05-05 21:07 39.90230 -84.22009 1005 ft 14 kts 130°
2026-05-05 21:07 39.90219 -84.21889 1005 ft 13 kts 86°
2026-05-05 21:08 39.90177 -84.21796 1005 ft 12 kts 144°
2026-05-05 21:08 39.90111 -84.21736 1005 ft 11 kts 145°
2026-05-05 21:08 39.90048 -84.21676 1005 ft 11 kts 143°
2026-05-05 21:08 39.89986 -84.21618 1005 ft 11 kts 144°
2026-05-05 21:09 39.89919 -84.21607 1005 ft 11 kts 219°
2026-05-05 21:09 39.89872 -84.21687 1005 ft 11 kts 234°
2026-05-05 21:09 39.89841 -84.21745 1005 ft 5 kts 235°
2026-05-05 21:09 39.89827 -84.21771 1005 ft 3 kts 235°
2026-05-05 21:10 39.89813 -84.21798 1005 ft 4 kts 235°
2026-05-05 21:10 39.89793 -84.21834 1005 ft 4 kts 234°
2026-05-05 21:10 39.89782 -84.21860 1005 ft 3 kts 261°
2026-05-05 21:10 39.89792 -84.21867 1005 ft 1 kts 352°
2026-05-05 21:11 39.89813 -84.21867 1005 ft 4 kts 358°
2026-05-05 21:11 39.89832 -84.21867 1005 ft 1 kts 358°
2026-05-05 21:11 39.89835 -84.21868 1005 ft 0 kts 358°